www.pogodaiklimat.ru
ПОГОДА в Стольницах

Архив погоды в Стольницах (Румыния)

Время
(UTC), дата
03 29.06
06 29.06
09 29.06
12 29.06
15 29.06
18 29.06
21 29.06
00 30.06
03 30.06
06 30.06
09 30.06
12 30.06
15 30.06
18 30.06
21 30.06
00 1.07
03 1.07
06 1.07
09 1.07
12 1.07
15 1.07
18 1.07
21 1.07
00 2.07
03 2.07
06 2.07
09 2.07
12 2.07
15 2.07
18 2.07
21 2.07
00 3.07
03 3.07
06 3.07
09 3.07
12 3.07
15 3.07
18 3.07
21 3.07
00 4.07
03 4.07
06 4.07
09 4.07
12 4.07
15 4.07
18 4.07
21 4.07
00 5.07
03 5.07
06 5.07
09 5.07
12 5.07
15 5.07
18 5.07
21 5.07
00 6.07
Ветер
(напр.,м/с)
Видим. Явления Облачность Т
(С)
Тd
(С)
f
(%)
Тe
(С)
Тes
(С)
Комфортность P
(гПа)
Po
(гПа)
Тmin
(С)
Tmax
(С)
R
(мм)
R24
(мм)
S
(см)
С 2-4
{5}
н/о н/о +16.1 +15.0 93 +16 +16 1016.8 991.9
С 3-4
{6}
10 км ясно +24.9 +16.0 58 +28 +34 жарко 1016.3 992.1 +16.1 +25.0 1.4
В 2-4
{5}
10 км ясно +31.5 +13.2 33 +33 +50 жарко 1015.8 992.2
СВ 2-4
{5}
10 км 4/4 1000 м
[Cu med, cong]
+32.9 +10.5 25 +32 +42 жарко 1015.3 991.8
С 2-4
{5}
10 км 4/4 1000 м
[Cu med, cong]
+34.0 +9.8 23 +33 +36 жарко 1013.5 990.1
штиль 0-1
{3}
10 км 4/0
[Ac lent Ci fib]
+30.2 +11.2 31 +31 +31 жарко 1012.6 989.0 +24.9 +35.0
С 3-3
{3}
н/о н/о +20.9 +15.1 69 +24 +24 комфорт 1014.8 990.3
СЗ 2-3
{3}
н/о н/о +18.5 +15.8 84 +20 +20 1015.0 990.3
С 2-3
{3}
н/о н/о +17.7 +15.0 84 +18 +18 1014.3 989.7
С 2-3
{3}
10 км ясно +25.4 +16.4 57 +29 +35 душно 1014.3 990.2 +17.1 +30.2
СВ 1-3
{4}
10 км ясно +32.0 +15.0 36 +34 +55 опасность
солнечного
удара
1014.0 990.5
СВ 2-4
{6}
10 км 4/4 1000 м
[Cu med, cong]
+34.1 +13.4 29 +35 +45 очень
жарко
1012.5 989.1
В 2-3
{4}
10 км 5/4 1000 м
[Cu med, cong Ac lent]
+35.3 +12.1 25 +35 +38 очень
жарко
1011.4 988.2
СВ 1-3
{3}
10 км 6/4 600 м
[Cb calv Ac lent]
+28.8 +16.8 48 +32 +32 душно 1012.0 988.2 +25.4 +35.9
СВ 4-6
{9}
н/о н/о +23.8 +16.1 62 +27 +27 жарко 1014.3 990.1
С 4-5
{5}
н/о н/о +22.5 +15.2 63 +26 +26 жарко 1014.0 989.8
СВ 3-4
{4}
н/о н/о +21.6 +15.3 67 +25 +25 комфорт 1014.3 989.9
СВ 4-6
{6}
10 км 8/0
[Ac As]
+24.8 +17.6 64 +29 +31 душно 1014.9 990.8 +19.5 +29.4
СВ 3-5
{6}
10 км 4/0
[Ac lent]
+30.9 +16.1 41 +34 +44 душно 1014.6 991.0
СВ 2-4
{6}
10 км 4/0
[Ac lent]
+33.4 +14.7 32 +35 +46 душно 1013.4 990.0
С 2-4
{6}
10 км 8/8 600 м
[Cb calv]
+34.1 +14.2 30 +35 +36 очень
жарко
1012.8 989.4
С 6-8
{8}
10 км 9/5 600 м
[Cb calv Ac As]
+26.7 +17.8 58 +31 +31 душно 1014.5 990.5 +24.8 +35.7
С 3-3
{5}
н/о н/о +22.8 +16.1 66 +27 +27 душно 1015.2 990.9
С 3-4
{4}
н/о н/о +20.3 +16.0 76 +23 +23 комфорт 1016.0 991.4
С 3-5
{6}
н/о н/о +20.3 +16.3 78 +24 +24 комфорт 1016.4 991.9
СВ 4-7
{7}
10 км 3/0
[Ac lent]
+25.8 +17.4 60 +30 +33 душно 1017.0 992.9 +19.5 +26.7
ЮВ 3-5
{6}
10 км 3/0
[Ac lent]
+31.3 +17.5 44 +35 +46 очень
душно
1017.2 993.5
В 1-4
{4}
10 км 6/4 1000 м
[Cu med, cong Ac lent]
+33.7 +15.9 34 +36 +45 очень
душно
1016.5 993.0
Ю 3-4
{8}
10 км 8/6 600 м
[Cb calv Ac lent]
+31.8 +16.1 39 +35 +36 очень
душно
1015.5 992.0
С 1-8
{8}
10 км в посл. час гроза 9/9 600 м
[Cb calv]
+20.6 +20.0 96 +26 +26 душно 1019.6 995.0 +19.6 +35.0 8
СЗ 3-5
{5}
н/о н/о +21.0 +19.8 93 +26 +26 душно 1018.9 994.4
ЮВ 1-3
{4}
н/о н/о +18.8 +18.4 98 +21 +21 комфорт 1018.6 993.9
СЗ 2-3
{3}
н/о н/о +18.3 +18.2 99 +19 +19 1018.6 993.8
СВ 3-5
{5}
10 км 8/4 600 м
[Cb calv Ac lent]
+24.5 +19.5 74 +30 +31 очень
душно
1018.2 994.0 +17.9 +24.5 8.0
В 2-4
{5}
10 км 8/0
[Ac As]
+28.7 +18.6 54 +34 +41 очень
душно
1018.2 994.3
В 2-4
{5}
10 км 6/6 1000 м
[Cu med, cong]
+32.7 +17.4 40 +36 +43 очень
душно
1016.6 993.0
СВ 3-8
{8}
10 км гроза без осадков 8/8 600 м
[Cb cap]
+32.6 +18.2 42 +37 +38 очень
душно
1015.7 992.2
С 3-4
{4}
10 км 9/5 600 м
[Cb calv Ac As]
+23.2 +20.1 83 +30 +30 очень
душно
1016.7 992.4 +22.7 +33.7
С 3-4
{4}
н/о н/о +21.1 +19.7 92 +26 +26 душно 1017.2 992.7
С 2-2
{3}
н/о н/о +19.7 +19.1 96 +23 +23 комфорт 1016.7 992.1
С 2-3
{3}
н/о н/о +18.6 +18.2 98 +20 +20 1016.7 992.0
С 2-3
{3}
10 км ясно +23.4 +18.7 75 +30 +36 очень
душно
1017.1 992.8 +18.4 +23.9
ЮВ 2-4
{4}
10 км 4/0
[Ac lent]
+30.5 +17.3 45 +34 +46 очень
душно
1016.0 992.3
Ю 3-6
{6}
10 км 6/4 1000 м
[Cu med, cong Ac lent]
+33.3 +16.7 37 +36 +42 очень
душно
1014.4 990.9
СВ 7-11
{11}
10 км гроза без осадков 9/9 600 м
[Cb cap]
+25.9 +19.3 67 +31 +31 очень
душно
1014.5 990.4
СВ 1-3
{6}
10 км {гроза} 9/6 600 м
[Cb calv Ac lent]
+22.6 +20.9 90 +30 +30 очень
душно
1014.1 989.8 +22.0 +34.8 1
С 1-1
{2}
н/о н/о +20.5 +20.0 97 +26 +26 душно 1015.4 990.9
СЗ 2-3
{3}
н/о н/о +19.3 +19.1 99 +22 +22 комфорт 1015.7 991.1
С 3-4
{4}
н/о н/о +18.8 +17.9 95 +20 +20 1015.1 990.5
С 1-2
{3}
10 км 3/0
[Ac lent]
+24.4 +18.9 71 +29 +35 душно 1015.3 991.1 +18.1 +24.4 1.2
СВ 2-4
{4}
10 км ясно +30.6 +18.6 49 +36 +53 опасность
солнечного
удара
1014.7 991.0
Ю 2-5
{7}
10 км 5/5 1000 м
[Cu med, cong]
+34.6 +16.0 33 +37 +45 очень
душно
1012.7 989.4
СВ 6-9
{20}
10 км гроза, ливневой дождь 10/10 600 м
[Cb cap]
+25.4 +16.1 56 +29 +29 душно 1012.3 988.3 4
С 4-6
{6}
10 км {гроза, ливн. дождь} 9/9 600 м
[Cb calv]
+24.4 +19.3 73 +29 +29 душно 1012.6 988.5 +20.7 +35.5 5
СВ 3-5
{5}
н/о н/о +23.0 +18.8 77 +29 +29 очень
душно
1012.6 988.3
З 3-6
{8}
н/о н/о +20.2 +19.9 98 +24 +24 комфорт 1014.8 990.3 6
Местоположение метеостанции Стольницы (Румыния): широта 44.57 долгота 24.78 высота над уровнем моря 209 м.
В архиве по умолчанию представлена погода в Стольницах за последнюю неделю. Архивные данные за месяц целиком и за предыдущие месяцы, начиная с января 2011 года, Вы можете получить, выбрав интересующий диапазон дат из раскрывающегося списка и нажав кнопку "Найти!".
*Определитесь, кто Вы:
Внимание! Время в таблицах - всемирное. Для получения местного времени необходимо прибавить поправку, которая равна 2 ч.
Смотрите также архив погоды в соседних городах и на ближайших метеорологических станциях:
Партнеры нашего сайта:      
Пояснения к столбцам:
  • Ветер - указаны скорость ветра в м/с - средняя за 10 мин, порывы в срок и между сроками (в фигурных скобках) и направление, откуда дует ветер: С - северный,
  • СВ - северо-восточный, В - восточный, ЮВ - юго-восточный, Ю - южный, ЮЗ - юго-западный, З - западный, СЗ - северо-западный.
  • Видимость - горизонтальная дальность видимости в метрах или километрах. При видимости от 1 до 10 км при отсутствии осадков обычно наблюдается дымка, при ухудшении видимости до 1 км и менее - туман. В сухую погоду видимость может ухудшаться дымом, пылью или мглою.
  • Явления - указаны атмосферные явления, наблюдавшиеся в срок или в последний час перед сроком; фигурными скобками обозначены явления, наблюдавшиеся между сроками (за 1-3 часа до срока); квадратными скобками обозначены град или гололедные отложения с указанием их диаметра в мм.
  • Облачность - указаны через наклонную черту общая и нижняя облачность в баллах и высота нижней границы облаков в метрах; квадратными скобками обозначены формы облаков: Ci - перистые, Cs - перисто-слоистые, Cc - перисто-кучевые, Ac - высококучевые, As - высокослоистые, Sc - слоисто-кучевые, Ns - слоисто-дождевые, Cu - кучевые, Cb - кучево-дождевые. Подробнее классификацию облаков см. в Атласе облаков (PDF).
  • T - Температура воздуха - температура, измеренная на высоте 2 м над землей.
  • Td - Температура точки росы - температура, при понижении до которой содержащийся в воздухе водяной пар достигнет насыщения.
  • f - Относительная влажность воздуха - влажноcть воздуха, измеренная на высоте 2 м над землей.
  • Te - Эффективная температура - температура, которую ощущает одетый по сезону человек в тени. Характеристика душности погоды. При расчете учитывается влияние влажности воздуха и скорости ветра на теплоощущения человека.
  • Tes - Эффективная температура на солнце - температура, которую ощущает человек, с поправкой на солнечный нагрев. Характеристика знойности погоды. Зависит от высоты солнца над горизонтом, облачности и скорости ветра. Ночью, в пасмурную погоду, а также при ветре 12 м/с и более поправка равна нулю.
  • P - Атмосферное давление - приведенное к уровню моря атмосферное давление.
  • Po - Атмосферное давление - измеренное на уровне метеостанции атмосферное давление.
  • Tmin - Минимальная температура - минимум температуры воздуха на высоте 2 м над землей.
  • Tmax - Максимальная температура - максимум температуры воздуха на высоте 2 м над землей.
  • R - Количество осадков - Количество выпавших осадков за период времени, мм. При наведении курсора мыши на число - период времени, за который выпало указанное количество осадков.
  • R24 - Количество осадков - Количество выпавших осадков за 24 часа, мм.
  • S - Снежный покров - Высота снежного покрова, см. При наведении курсора мыши на число - состояние снежного покрова и степень покрытия местности в баллах.